Miscellaneous Local Product
Issued by NWS Hastings, NE

Home | Current Version | Previous Version | Graphics & Text | Print | Product List | Glossary On
Versions: 1 2 3 4 5 6 7 8 9 10 11 12 13 14 15 16 17 18 19 20 21 22 23 24 25 26 27 28 29 30 31 32 33 34 35 36 37 38 39 40 41 42 43 44 45 46 47 48 49 50
491
AXUS43 KGID 210202
MISGRI

GID CWA HOURLY WEATHER ROUNDUP
NATIONAL WEATHER SERVICE HASTINGS NE
900 PM CDT WED MAY 20 2015

NOTE: "FAIR" INDICATES FEW OR NO CLOUDS BELOW 12,000 FEET WITH NO
SIGNIFICANT WEATHER AND/OR OBSTRUCTIONS TO VISIBILITY.

...SOUTH CENTRAL NEBRASKA...

CITY           SKY/WX    TMP DP  RH WIND       PRES   REMARKS
GRAND ISLAND   CLOUDY    47  41  80 N5        30.28R
HASTINGS       CLOUDY    47  40  76 N5        30.27R
KEARNEY        CLOUDY    46  39  76 N6        30.28R
ORD            PTCLDY    43  38  82 W5        30.26S
YORK           CLOUDY    46  43  87 N7        30.26S
AURORA         CLOUDY    48  42  82 N6        30.26S
LEXINGTON      CLOUDY    46  41  83 NE6       30.28R
HOLDREGE       CLOUDY    47  40  76 NE8       30.27R
HEBRON         CLOUDY    49  40  70 N6        30.26R

...NEBRASKA PANHANDLE...

CITY           SKY/WX    TMP DP  RH WIND       PRES   REMARKS
CHADRON        CLOUDY    45  36  70 SW7       30.29S
ALLIANCE       CLOUDY    42  34  73 N5        30.29R
SCOTTSBLUFF    CLOUDY    45  34  65 E6        30.29R
SIDNEY         CLOUDY    43  33  68 N6        30.29R

...WESTERN AND NORTH CENTRAL NEBRASKA...

CITY           SKY/WX    TMP DP  RH WIND       PRES   REMARKS
VALENTINE      CLEAR     45  39  79 SW8       30.26S
AINSWORTH      CLEAR     47  39  73 W5        30.26S
ONEILL         CLEAR     50  40  69 W3        30.25S
BROKEN BOW     MOCLDY    47  39  74 CALM      30.27S
IMPERIAL       CLOUDY    47  37  68 NE6       30.28R
NORTH PLATTE   MOCLDY    45  38  76 N5        30.28R
MCCOOK         CLOUDY    48  40  73 NE8       30.28R

...EASTERN NEBRASKA...

CITY           SKY/WX    TMP DP  RH WIND       PRES   REMARKS
NORFOLK        PTCLDY    44  39  82 SW5       30.24F
SO SIOUX CITY  CLEAR     47  41  80 SW3       30.23F
TEKAMAH        PTCLDY    49  42  77 CALM      30.24S
COLUMBUS       CLOUDY    48  37  66 E3        30.28S
OMAHA EPPLEY   CLOUDY    49  42  77 N8        30.23F
MILLARD        CLOUDY    49  41  74 CALM      30.24R
LINCOLN        CLOUDY    48  42  80 N10       30.26S
NEBRASKA CITY  CLOUDY    48  43  84 N8        30.23S
BEATRICE       CLOUDY    48  42  79 N7        30.24S
FALLS CITY     CLOUDY    48  46  93 N5        30.21S

...NORTHERN KANSAS...

CITY           SKY/WX    TMP DP  RH WIND       PRES   REMARKS
GOODLAND       CLOUDY    46  36  68 N6        30.28R
HILL CITY      CLOUDY    49  41  74 NE6       30.27R
NORTON         PTCLDY    48  37  66 N5        30.26S
PHILLIPSBURG   CLOUDY    52  45  76 N6        30.28R
SMITH CENTER   MOCLDY    46  41  81 N5        30.27S
HAYS           MOCLDY    48  37  66 N6        30.26R
RUSSELL        CLOUDY    50  43  77 N14       30.24R
CONCORDIA      MOCLDY    48  42  80 N8        30.25R
SALINA         CLOUDY    53  43  68 N13       30.25R
TOPEKA         CLOUDY    51  47  86 N7        30.22R



USA.gov is the U.S. government's official web portal to all federal, state and local government web resources and services.